Regional Weather Roundup
Issued by NWS Charleston, WV

Home | Current Version | Previous Version | Graphics & Text | Print | Product List | Glossary On
Versions: 1 2 3 4 5 6 7 8 9 10 11 12 13 14 15 16 17 18 19 20 21 22 23 24 25 26 27 28 29 30 31 32 33 34 35 36 37 38 39 40 41 42 43 44 45 46 47
000
ASUS41 KRLX 260410
RWRRLX
West Virginia Regional Weather Roundup
National Weather Service Charleston WV
1100 PM EST THU DEC 25 2014

Note: "fair" indicates few or no clouds below 12,000 feet with no
significant weather and/or obstructions to visibility.

WVZ003-260500-
Northern Panhandle of West Virginia

CITY           SKY/WX    TMP DP  RH WIND       PRES   REMARKS
WHEELING       CLOUDY    38  28  67 SW8       30.23R
$$

WVZ009-260500-
Northwest West Virginia

CITY           SKY/WX    TMP DP  RH WIND       PRES   REMARKS
PARKERSBURG    PTCLDY    38  28  67 SE3       30.28F
$$

WVZ006-260500-
Western West Virginia

CITY           SKY/WX    TMP DP  RH WIND       PRES   REMARKS
HUNTINGTON     CLEAR     31  29  92 E6        30.22F
$$

WVZ015-260500-
West Central West Virginia

CITY           SKY/WX    TMP DP  RH WIND       PRES   REMARKS
CHARLESTON     CLEAR     31  30  96 CALM      30.24F
$$

WVZ022-031-260500-
North Central West Virginia

CITY           SKY/WX    TMP DP  RH WIND       PRES   REMARKS
CLARKSBURG     CLOUDY    38  31  76 SW6       30.25S
MORGANTOWN     CLOUDY    39  26  59 SW8       30.25R
$$

WVZ025-035-042-045-260500-
Southern West Virginia

CITY           SKY/WX    TMP DP  RH WIND       PRES   REMARKS
BECKLEY        CLEAR     29  26  89 CALM      30.20F
LOGAN            N/A     34  32  93 CALM      30.20F
BLUEFIELD      CLEAR     34  26  72 W3        30.20F
LEWISBURG        N/A     31  28  89 CALM      30.21F
$$

WVZ047-260500-
Northern Mountains of West Virginia

CITY           SKY/WX    TMP DP  RH WIND       PRES   REMARKS
ELKINS         CLOUDY    36  30  79 SW5       30.25R
$$

WVZ052-260500-
Eastern Panhandle of West Virginia

CITY           SKY/WX    TMP DP  RH WIND       PRES   REMARKS
MARTINSBURG    CLEAR     36  26  67 SW6       30.23R
PETERSBURG     CLEAR     30  28  90 CALM      30.24S
$$


USA.gov is the U.S. government's official web portal to all federal, state and local government web resources and services.